EUTELSAT 36D

Last updated on Tue Oct 08 2024 00:02:42 GMT+0000 (Coordinated Universal Time)

1 59346U 24059A 24281.26416388 .00000167 00000+0 00000+0 0 9994 2 59346 0.0150 258.6691 0000337 191.9699 56.7475 1.00271271 1948
UTC large
Height (km)
Speed (km/s)
/
Latitude / Longitude
Inclination (degrees)
Orbital Period (minutes)
Azimuth
Elevation
Range (km)
Doppler Factor

Next 0 passes for location: London (51.5072 / 0.1276)

Sorry there are no passes over London.